When you browse on this site, cookies collect data to enhance your experience and personalize the content and advertising you see.
Visit our Privacy Policy to learn more. By continuing to use the site, you agree to this use of cookies and data.
  • In Hungary
  • List of Countries
  • For 7 days
  • Water Temperature
  • Weather Map
  • News
  • Weather Widgets
  • user-avatar
    Login

    Hourly Weather Akaltara

    Today, 7 December, Saturday

    Time Temperature Precipitation Wind Pressure Humidity
    00:00 +16°C° 0 mm 1 mps 738 mmHg 48%
    01:00 +16°C° 0 mm 1 mps 738 mmHg 50%
    02:00 +16°C° 0 mm 1 mps 738 mmHg 52%
    03:00 +15°C° 0 mm 1 mps 738 mmHg 54%
    04:00 +15°C° 0 mm 2 mps 738 mmHg 56%
    05:00 +15°C° 0 mm 2 mps 738 mmHg 62%
    06:00 +16°C° 0 mm 2 mps 739 mmHg 59%
    07:00 +18°C° 0 mm 2 mps 739 mmHg 57%
    08:00 +20°C° 0 mm 1 mps 740 mmHg 54%
    09:00 +21°C° 0 mm 2 mps 739 mmHg 50%
    10:00 +24°C° 0 mm 2 mps 739 mmHg 46%
    11:00 +26°C° 0 mm 2 mps 739 mmHg 42%
    12:00 +27°C° 0 mm 2 mps 738 mmHg 39%
    13:00 +28°C° 0 mm 1 mps 738 mmHg 36%
    14:00 +28°C° 0 mm 1 mps 737 mmHg 32%
    15:00 +27°C° 0 mm 1 mps 737 mmHg 36%
    16:00 +25°C° 0 mm 1 mps 737 mmHg 40%
    17:00 +23°C° 0 mm 1 mps 737 mmHg 43%
    18:00 +22°C° 0 mm 1 mps 738 mmHg 46%
    19:00 +21°C° 0 mm 1 mps 738 mmHg 49%
    20:00 +20°C° 0 mm 1 mps 738 mmHg 52%
    21:00 +18°C° 0 mm 0 mps 738 mmHg 54%
    22:00 +17°C° 0 mm 0 mps 738 mmHg 56%
    23:00 +17°C° 0 mm 0 mps 738 mmHg 58%

    Tomorrow, 8 December, Sunday

    Time Temperature Precipitation Wind Pressure Humidity
    00:00 +18°C° 0 mm 1 mps 737 mmHg 59%
    01:00 +18°C° 0 mm 1 mps 737 mmHg 60%
    02:00 +18°C° 0 mm 1 mps 737 mmHg 62%
    03:00 +16°C° 0 mm 1 mps 737 mmHg 63%
    04:00 +16°C° 0 mm 1 mps 737 mmHg 65%
    05:00 +16°C° 0 mm 1 mps 737 mmHg 66%
    06:00 +18°C° 0 mm 1 mps 738 mmHg 62%
    07:00 +20°C° 0 mm 1 mps 739 mmHg 58%
    08:00 +21°C° 0 mm 1 mps 740 mmHg 54%
    09:00 +23°C° 0 mm 1 mps 739 mmHg 49%
    10:00 +25°C° 0 mm 1 mps 739 mmHg 44%
    11:00 +27°C° 0 mm 1 mps 739 mmHg 39%
    12:00 +27°C° 0 mm 1 mps 738 mmHg 37%
    13:00 +28°C° 0 mm 1 mps 737 mmHg 35%
    14:00 +29°C° 0 mm 1 mps 737 mmHg 33%
    15:00 +27°C° 0 mm 1 mps 737 mmHg 37%
    16:00 +25°C° 0 mm 1 mps 737 mmHg 40%
    17:00 +24°C° 0 mm 1 mps 737 mmHg 44%
    18:00 +23°C° 0 mm 1 mps 737 mmHg 46%
    19:00 +22°C° 0 mm 1 mps 738 mmHg 48%
    20:00 +19°C° 0 mm 0 mps 738 mmHg 51%
    21:00 +21°C° 0 mm 1 mps 738 mmHg 52%
    22:00 +20°C° 0 mm 1 mps 738 mmHg 54%
    23:00 +20°C° 0 mm 1 mps 737 mmHg 56%

    Day after tomorrow, 9 December, Monday

    Time Temperature Precipitation Wind Pressure Humidity
    00:00 +19°C° 0 mm 1 mps 737 mmHg 58%
    01:00 +19°C° 0 mm 1 mps 737 mmHg 60%
    02:00 +18°C° 0 mm 1 mps 737 mmHg 62%
    03:00 +18°C° 0 mm 1 mps 737 mmHg 64%
    04:00 +18°C° 0 mm 1 mps 737 mmHg 66%
    05:00 +16°C° 0 mm 1 mps 737 mmHg 68%
    06:00 +19°C° 0 mm 1 mps 738 mmHg 64%
    07:00 +20°C° 0 mm 1 mps 739 mmHg 59%
    08:00 +22°C° 0 mm 1 mps 739 mmHg 55%
    09:00 +24°C° 0 mm 1 mps 739 mmHg 50%
    10:00 +26°C° 0 mm 1 mps 739 mmHg 45%
    11:00 +28°C° 0 mm 1 mps 738 mmHg 41%
    12:00 +28°C° 0 mm 1 mps 738 mmHg 38%
    13:00 +29°C° 0 mm 1 mps 737 mmHg 36%
    14:00 +30°C° 0 mm 1 mps 737 mmHg 34%
    15:00 +28°C° 0 mm 1 mps 736 mmHg 38%
    16:00 +26°C° 0 mm 1 mps 736 mmHg 41%
    17:00 +24°C° 0 mm 1 mps 736 mmHg 45%
    18:00 +24°C° 0 mm 1 mps 737 mmHg 47%
    19:00 +21°C° 0 mm 0 mps 737 mmHg 50%
    20:00 +20°C° 0 mm 0 mps 737 mmHg 52%
    21:00 +22°C° 0 mm 1 mps 737 mmHg 54%
    22:00 +21°C° 0 mm 1 mps 737 mmHg 56%
    23:00 +21°C° 0 mm 1 mps 737 mmHg 58%

    10 December, Tuesday

    Time Temperature Precipitation Wind Pressure Humidity
    00:00 +20°C° 0 mm 1 mps 736 mmHg 59%
    01:00 +20°C° 0 mm 1 mps 736 mmHg 60%
    02:00 +19°C° 0 mm 1 mps 736 mmHg 62%
    03:00 +19°C° 0 mm 1 mps 736 mmHg 63%
    04:00 +18°C° 0 mm 1 mps 736 mmHg 64%
    05:00 +18°C° 0 mm 1 mps 736 mmHg 65%
    06:00 +19°C° 0 mm 1 mps 736 mmHg 61%
    07:00 +21°C° 0 mm 1 mps 737 mmHg 58%
    08:00 +22°C° 0 mm 1 mps 738 mmHg 54%
    09:00 +24°C° 0 mm 1 mps 737 mmHg 49%
    10:00 +26°C° 0 mm 1 mps 737 mmHg 44%
    11:00 +26°C° 0 mm 0 mps 737 mmHg 39%
    12:00 +29°C° 0 mm 1 mps 736 mmHg 37%
    13:00 +29°C° 0 mm 1 mps 735 mmHg 35%
    14:00 +29°C° 0 mm 2 mps 735 mmHg 33%
    15:00 +28°C° 0 mm 1 mps 735 mmHg 37%
    16:00 +26°C° 0 mm 1 mps 734 mmHg 40%
    17:00 +25°C° 0 mm 1 mps 734 mmHg 43%
    18:00 +24°C° 0 mm 1 mps 735 mmHg 45%
    19:00 +23°C° 0 mm 1 mps 735 mmHg 48%
    20:00 +22°C° 0 mm 1 mps 735 mmHg 50%
    21:00 +22°C° 0 mm 1 mps 735 mmHg 51%
    22:00 +21°C° 0 mm 1 mps 735 mmHg 53%
    23:00 +20°C° 0 mm 1 mps 735 mmHg 55%

    11 December, Wednesday

    Time Temperature Precipitation Wind Pressure Humidity
    00:00 +20°C° 0 mm 1 mps 735 mmHg 55%
    01:00 +19°C° 0 mm 1 mps 735 mmHg 56%
    02:00 +18°C° 0 mm 2 mps 735 mmHg 56%
    03:00 +17°C° 0 mm 2 mps 735 mmHg 57%
    04:00 +18°C° 0 mm 1 mps 735 mmHg 58%
    05:00 +16°C° 0 mm 1 mps 735 mmHg 59%
    06:00 +19°C° 0 mm 1 mps 736 mmHg 56%
    07:00 +20°C° 0 mm 1 mps 736 mmHg 52%
    08:00 +21°C° 0 mm 1 mps 737 mmHg 49%
    09:00 +23°C° 0 mm 1 mps 737 mmHg 45%
    10:00 +26°C° 0 mm 1 mps 736 mmHg 41%
    11:00 +28°C° 0 mm 1 mps 736 mmHg 37%
    12:00 +28°C° 0 mm 1 mps 736 mmHg 35%
    13:00 +29°C° 0 mm 1 mps 735 mmHg 33%
    14:00 +28°C° 0 mm 0 mps 734 mmHg 32%
    15:00 +26°C° 0 mm 0 mps 734 mmHg 35%
    16:00 +24°C° 0 mm 0 mps 734 mmHg 38%
    17:00 +22°C° 0 mm 0 mps 734 mmHg 41%
    18:00 +23°C° 0 mm 1 mps 734 mmHg 43%
    19:00 +23°C° 0 mm 1 mps 735 mmHg 45%
    20:00 +22°C° 0 mm 1 mps 735 mmHg 47%
    21:00 +21°C° 0 mm 1 mps 735 mmHg 49%
    22:00 +21°C° 0 mm 1 mps 735 mmHg 51%
    23:00 +20°C° 0 mm 1 mps 735 mmHg 53%

    12 December, Thursday

    Time Temperature Precipitation Wind Pressure Humidity
    00:00 +20°C° 0 mm 1 mps 735 mmHg 53%
    01:00 +18°C° 0 mm 2 mps 735 mmHg 53%
    02:00 +17°C° 0 mm 2 mps 735 mmHg 54%
    03:00 +18°C° 0 mm 1 mps 735 mmHg 55%
    04:00 +18°C° 0 mm 1 mps 735 mmHg 56%
    05:00 +16°C° 0 mm 1 mps 735 mmHg 57%
    06:00 +19°C° 0 mm 1 mps 736 mmHg 55%
    07:00 +20°C° 0 mm 1 mps 737 mmHg 53%
    08:00 +22°C° 0 mm 1 mps 737 mmHg 51%
    09:00 +23°C° 0 mm 1 mps 737 mmHg 48%
    10:00 +25°C° 0 mm 2 mps 737 mmHg 45%
    11:00 +27°C° 0 mm 2 mps 736 mmHg 42%
    12:00 +28°C° 0 mm 2 mps 736 mmHg 39%
    13:00 +29°C° 0 mm 1 mps 735 mmHg 36%
    14:00 +30°C° 0 mm 1 mps 735 mmHg 34%
    15:00 +28°C° 0 mm 1 mps 735 mmHg 37%
    16:00 +24°C° 0 mm 0 mps 735 mmHg 39%
    17:00 +23°C° 0 mm 0 mps 734 mmHg 42%
    18:00 +24°C° 0 mm 1 mps 735 mmHg 45%
    19:00 +23°C° 0 mm 1 mps 735 mmHg 48%
    20:00 +21°C° 0 mm 2 mps 736 mmHg 50%
    21:00 +22°C° 0 mm 1 mps 736 mmHg 52%
    22:00 +21°C° 0 mm 1 mps 736 mmHg 55%
    23:00 +20°C° 0 mm 1 mps 736 mmHg 57%
    Show more